Tarboro, NC

5:58 PM EDT on May 26, 2017 (GMT -0400)
Tarboro-edgecombe

Weather History for KETC - July, 2012

Change the Weather History Date:

Tuesday, July 3, 2012

  Actual Average Record
Temperature  
Mean Temperature 84 °F -  
Max Temperature 96 °F 89 °F 101 °F (1954)
Min Temperature 72 °F 66 °F 52 °F (1988)
Cooling Degree Days 19    
Growing Degree Days 34 (Base 50)    
Moisture  
Dew Point 71 °F    
Average Humidity 68    
Maximum Humidity 93    
Minimum Humidity 35    
Precipitation  
Precipitation 0.02 in - - ()
Sea Level Pressure  
Sea Level Pressure 29.95 in    
Wind  
Wind Speed 2 mph (South)    
Max Wind Speed 12 mph    
Max Gust Speed -    
Visibility 9 miles    
Events Rain    
Averages and records for this station are not official NWS values.
T = Trace of Precipitation, MM = Missing Value Source: NWS Daily Summary

Daily Weather History Graph

Daily Weather History Graph

Search for Another Location

Airport or City:

Trip Planner

Search our weather history database for the weather conditions in past years. The results will help you decide how hot, cold, wet, or windy it might be!

Date:

Astronomy

Jul. 03, 2012 Rise Set
Actual Time 5:58 AM EDT 8:30 PM EDT
Civil Twilight 5:28 AM EDT 9:00 PM EDT
Nautical Twilight 4:51 AM EDT 9:37 PM EDT
Astronomical Twilight 4:10 AM EDT 10:18 PM EDT
Moon 8:25 PM EDT (7/3) 5:47 AM EDT (7/3)
Length of Visible Light 15h 32m
Length of Day
14h 32m
Full, 100% of the Moon is Illuminated
Jul 3
Full
Jul 3
Full
Jul 10
Last Quarter
Jul 19
New
Jul 26
First Quarter

Hourly Weather History & Observations

Time (EDT) Temp. Heat Index Dew Point Humidity Pressure Visibility Wind Dir Wind Speed Gust Speed Precip Events Conditions
12:35 AM 77.2 °F - 73.6 °F 89% 29.99 in 10.0 mi Calm Calm - N/A   Mostly Cloudy
12:55 AM 77.0 °F - 73.8 °F 90% 29.99 in 10.0 mi Calm Calm - N/A   Overcast
1:15 AM 77.0 °F - 73.4 °F 89% 29.98 in 10.0 mi Calm Calm - N/A   Overcast
1:35 AM 78.1 °F - 71.6 °F 80% 29.98 in 10.0 mi Calm Calm - N/A   Overcast
1:55 AM 78.8 °F - 70.7 °F 76% 29.98 in 10.0 mi Calm Calm - N/A   Mostly Cloudy
2:15 AM 77.9 °F - 70.9 °F 79% 29.97 in 10.0 mi Calm Calm - N/A   Scattered Clouds
2:35 AM 77.2 °F - 70.7 °F 80% 29.97 in 10.0 mi Calm Calm - N/A   Clear
2:55 AM 76.8 °F - 70.5 °F 81% 29.97 in 10.0 mi Calm Calm - N/A   Clear
3:35 AM 75.6 °F - 70.7 °F 85% 29.96 in 10.0 mi Calm Calm - N/A   Clear
3:55 AM 74.3 °F - 70.9 °F 89% 29.95 in 10.0 mi Calm Calm - N/A   Clear
4:15 AM 73.6 °F - 70.7 °F 91% 29.95 in 10.0 mi Calm Calm - N/A   Clear
4:35 AM 73.2 °F - 70.5 °F 91% 29.95 in 7.0 mi Calm Calm - N/A   Clear
4:55 AM 72.9 °F - 70.3 °F 92% 29.96 in 5.0 mi Calm Calm - N/A   Clear
5:15 AM 72.9 °F - 70.5 °F 92% 29.96 in 5.0 mi Calm Calm - N/A   Clear
5:35 AM 72.3 °F - 70.0 °F 92% 29.97 in 3.0 mi Calm Calm - N/A   Clear
5:55 AM 72.1 °F - 70.0 °F 93% 29.97 in 2.0 mi ESE 3.5 mph - N/A   Clear
6:15 AM 72.0 °F - 69.8 °F 93% 29.97 in 4.0 mi Calm Calm - N/A   Clear
6:35 AM 72.3 °F - 70.2 °F 93% 29.98 in 5.0 mi Calm Calm - N/A   Clear
6:55 AM 73.6 °F - 70.7 °F 91% 29.98 in 7.0 mi Calm Calm - N/A   Clear
7:15 AM 74.8 °F - 70.9 °F 87% 29.98 in 7.0 mi Calm Calm - N/A   Clear
7:35 AM 76.3 °F - 71.1 °F 84% 29.99 in 10.0 mi South 3.5 mph - N/A   Scattered Clouds
7:55 AM 77.7 °F - 70.0 °F 77% 29.99 in 10.0 mi Calm Calm - N/A   Clear
8:15 AM 79.5 °F - 70.2 °F 73% 29.99 in 10.0 mi South 3.5 mph - N/A   Clear
8:35 AM 81.1 °F 84.5 °F 69.8 °F 68% 29.99 in 10.0 mi South 4.6 mph - N/A   Clear
8:55 AM 82.4 °F 86.1 °F 69.6 °F 65% 29.99 in 10.0 mi South 3.5 mph - N/A   Clear
9:15 AM 83.7 °F 87.7 °F 70.0 °F 63% 29.99 in 10.0 mi SSW 5.8 mph - N/A   Clear
9:35 AM 85.1 °F 89.8 °F 70.3 °F 61% 29.99 in 10.0 mi SSW 4.6 mph - N/A   Clear
9:55 AM 86.2 °F 90.7 °F 70.0 °F 58% 30.00 in 10.0 mi SSW 4.6 mph - N/A   Clear
10:15 AM 87.3 °F 92.4 °F 70.5 °F 57% 30.00 in 10.0 mi SSE 3.5 mph - N/A   Clear
10:35 AM 88.0 °F 93.8 °F 71.1 °F 57% 29.99 in 10.0 mi SSW 4.6 mph - N/A   Clear
10:55 AM 88.9 °F 95.1 °F 71.6 °F 56% 29.98 in 10.0 mi SSW 5.8 mph - N/A   Clear
11:15 AM 89.8 °F 96.5 °F 71.4 °F 55% 29.99 in 10.0 mi SSW 8.1 mph - N/A   Clear
11:35 AM 90.3 °F 97.2 °F 71.6 °F 54% 29.99 in 10.0 mi SSW 5.8 mph - N/A   Clear
11:55 AM 91.2 °F 98.5 °F 71.8 °F 53% 29.98 in 10.0 mi South 4.6 mph - N/A   Clear
12:15 PM 91.9 °F 99.0 °F 71.4 °F 51% 29.98 in 10.0 mi SW 5.8 mph - N/A   Clear
12:35 PM 92.3 °F 98.6 °F 70.9 °F 49% 29.98 in 10.0 mi SW 5.8 mph - N/A   Clear
12:55 PM 92.5 °F 97.9 °F 69.6 °F 47% 29.97 in 10.0 mi SSW 6.9 mph - N/A   Clear
1:15 PM 93.2 °F 99.9 °F 70.9 °F 48% 29.97 in 10.0 mi South 5.8 mph - N/A   Clear
1:35 PM 93.6 °F 99.5 °F 70.2 °F 46% 29.95 in 10.0 mi South 4.6 mph - N/A   Clear
1:55 PM 93.9 °F 99.7 °F 69.8 °F 45% 29.95 in 10.0 mi SW 3.5 mph - N/A   Clear
2:15 PM 94.5 °F 100.8 °F 69.8 °F 45% 29.95 in 10.0 mi SSW 4.6 mph - N/A   Clear
2:35 PM 94.8 °F 100.9 °F 70.0 °F 44% 29.95 in 10.0 mi South 3.5 mph - N/A   Scattered Clouds
2:55 PM 95.2 °F 101.0 °F 69.4 °F 43% 29.94 in 10.0 mi SSW 3.5 mph - N/A   Scattered Clouds
3:15 PM 94.3 °F 100.4 °F 69.8 °F 45% 29.93 in 10.0 mi Calm Calm - N/A   Scattered Clouds
3:35 PM 95.4 °F 100.2 °F 68.4 °F 41% 29.93 in 10.0 mi SW 4.6 mph - N/A   Mostly Cloudy
3:55 PM 96.4 °F 100.6 °F 67.1 °F 38% 29.93 in 10.0 mi WSW 5.8 mph - N/A   Scattered Clouds
4:15 PM 96.4 °F 100.0 °F 66.2 °F 37% 29.92 in 10.0 mi SW 6.9 mph - N/A   Clear
4:35 PM 96.6 °F 100.3 °F 66.4 °F 37% 29.92 in 10.0 mi Calm Calm - N/A   Clear
4:55 PM 96.3 °F 98.6 °F 64.6 °F 35% 29.91 in 10.0 mi SSW 3.5 mph - N/A   Clear
5:15 PM 95.4 °F 97.6 °F 64.6 °F 36% 29.91 in 10.0 mi Calm Calm - N/A   Clear
5:35 PM 92.7 °F 97.7 °F 69.3 °F 46% 29.90 in 10.0 mi Calm Calm - N/A   Scattered Clouds
5:55 PM 91.0 °F 98.2 °F 72.0 °F 53% 29.90 in 10.0 mi Calm Calm - N/A   Scattered Clouds
6:15 PM 90.0 °F 98.5 °F 73.4 °F 58% 29.91 in 5.0 mi North 3.5 mph - 0.02 in Rain Heavy Rain
6:35 PM - - - N/A% 29.90 in - SE 11.5 mph - N/A   Unknown
6:55 PM 83.8 °F 87.0 °F 68.0 °F 59% 29.90 in 10.0 mi East 4.6 mph - N/A   Clear
7:15 PM 83.1 °F 88.9 °F 72.9 °F 71% 29.90 in 10.0 mi ESE 3.5 mph - N/A   Clear
7:35 PM 83.3 °F 90.5 °F 74.7 °F 75% 29.91 in 10.0 mi Calm Calm - N/A   Clear
7:55 PM 81.9 °F 89.5 °F 76.5 °F 84% 29.90 in 10.0 mi Calm Calm - N/A   Clear
8:15 PM 81.0 °F 87.7 °F 76.8 °F 87% 29.91 in 7.0 mi Calm Calm - N/A   Clear
8:35 PM 80.2 °F 86.3 °F 77.0 °F 90% 29.92 in 5.0 mi Calm Calm - N/A   Clear
8:55 PM 81.7 °F 88.3 °F 75.2 °F 81% 29.92 in 10.0 mi SSE 6.9 mph - N/A   Clear
9:15 PM 83.7 °F 90.1 °F 73.4 °F 71% 29.92 in 10.0 mi South 5.8 mph - N/A   Clear
9:35 PM 83.3 °F 89.3 °F 73.0 °F 71% 29.93 in 10.0 mi South 5.8 mph - N/A   Clear
9:55 PM 82.9 °F 88.5 °F 72.7 °F 71% 29.94 in 10.0 mi SSE 4.6 mph - N/A   Clear
10:15 PM 82.2 °F 87.3 °F 72.5 °F 72% 29.93 in 10.0 mi South 4.6 mph - N/A   Clear
10:35 PM 81.7 °F 86.7 °F 72.7 °F 74% 29.94 in 10.0 mi South 3.5 mph - N/A   Clear
10:55 PM 81.1 °F 86.0 °F 72.9 °F 76% 29.95 in 10.0 mi SW 4.6 mph - N/A   Clear
11:15 PM 80.6 °F 85.2 °F 73.0 °F 78% 29.94 in 10.0 mi South 4.6 mph - N/A   Clear
11:35 PM 80.6 °F 85.2 °F 73.0 °F 78% 29.94 in 10.0 mi South 5.8 mph - N/A   Clear
11:55 PM 80.6 °F 85.2 °F 73.0 °F 78% 29.94 in 10.0 mi South 5.8 mph - N/A   Clear